When you browse on this site, cookies collect data to enhance your experience and personalize the content and advertising you see.
Visit our Privacy Policy to learn more. By continuing to use the site, you agree to this use of cookies and data.
  • In Portugal
  • List of Countries
  • For 7 days
  • Water Temperature
  • Satellite Maps
  • Weather Map
  • Weather Widgets
  • user-avatar
    Login

    Hourly Weather Ocice

    Today, 24 March, Sunday

    Time Temperature Precipitation Wind Pressure Humidity
    00:00 +9°C° 0 mm 2 mps 751 mmHg 90%
    01:00 +9°C° 0 mm 1 mps 751 mmHg 90%
    02:00 +8°C° 0 mm 1 mps 751 mmHg 89%
    03:00 +8°C° 0 mm 1 mps 751 mmHg 89%
    04:00 +8°C° 0 mm 1 mps 751 mmHg 89%
    05:00 +7°C° 0 mm 1 mps 751 mmHg 89%
    06:00 +7°C° 0 mm 1 mps 751 mmHg 90%
    07:00 +7°C° 0 mm 1 mps 751 mmHg 89%
    08:00 +8°C° 0 mm 1 mps 751 mmHg 79%
    09:00 +8°C° 0 mm 2 mps 750 mmHg 70%
    10:00 +9°C° 0 mm 2 mps 750 mmHg 60%
    11:00 +10°C° 0 mm 2 mps 750 mmHg 57%
    12:00 +12°C° 0 mm 1 mps 749 mmHg 53%
    13:00 +13°C° 0 mm 1 mps 749 mmHg 50%
    14:00 +12°C° 0 mm 1 mps 748 mmHg 52%
    15:00 +12°C° 0 mm 1 mps 747 mmHg 54%
    16:00 +10°C° 0 mm 0 mps 747 mmHg 55%
    17:00 +11°C° 0 mm 1 mps 747 mmHg 58%
    18:00 +10°C° 0 mm 1 mps 746 mmHg 60%
    19:00 +10°C° 0 mm 1 mps 746 mmHg 63%
    20:00 +9°C° 0 mm 1 mps 746 mmHg 65%
    21:00 +8°C° 0 mm 2 mps 745 mmHg 67%
    22:00 +8°C° 0 mm 2 mps 745 mmHg 68%
    23:00 +7°C° 0 mm 2 mps 745 mmHg 71%

    Tomorrow, 25 March, Monday

    Time Temperature Precipitation Wind Pressure Humidity
    00:00 +6°C° 0 mm 2 mps 744 mmHg 73%
    01:00 +6°C° 0 mm 2 mps 744 mmHg 76%
    02:00 +4°C° 0 mm 3 mps 743 mmHg 78%
    03:00 +3°C° 0 mm 3 mps 743 mmHg 81%
    04:00 +3°C° 0 mm 3 mps 742 mmHg 84%
    05:00 +3°C° 0 mm 4 mps 742 mmHg 81%
    06:00 +3°C° 0 mm 4 mps 742 mmHg 78%
    07:00 +1°C° 0 mm 4 mps 741 mmHg 75%
    08:00 +2°C° 0.1 mm 5 mps 741 mmHg 70%
    09:00 +3°C° 0.1 mm 6 mps 741 mmHg 65%
    10:00 +5°C° 0.1 mm 7 mps 741 mmHg 60%
    11:00 +4°C° 0.5 mm 7 mps 741 mmHg 62%
    12:00 +4°C° 0.5 mm 6 mps 741 mmHg 64%
    13:00 +4°C° 0.5 mm 6 mps 741 mmHg 66%
    14:00 +5°C° 0.2 mm 5 mps 741 mmHg 63%
    15:00 +6°C° 0.2 mm 5 mps 741 mmHg 61%
    16:00 +6°C° 0.2 mm 5 mps 741 mmHg 58%
    17:00 +5°C° 0.3 mm 4 mps 742 mmHg 65%
    18:00 +4°C° 0.3 mm 3 mps 742 mmHg 72%
    19:00 +4°C° 0.3 mm 2 mps 743 mmHg 78%
    20:00 +3°C° 0 mm 2 mps 744 mmHg 81%
    21:00 +3°C° 0 mm 2 mps 744 mmHg 85%
    22:00 +2°C° 0 mm 2 mps 745 mmHg 88%
    23:00 +2°C° 0 mm 2 mps 746 mmHg 89%

    Day after tomorrow, 26 March, Tuesday

    Time Temperature Precipitation Wind Pressure Humidity
    00:00 +1°C° 0 mm 2 mps 747 mmHg 91%
    01:00 +1°C° 0 mm 2 mps 747 mmHg 92%
    02:00 +1°C° 0 mm 2 mps 747 mmHg 94%
    03:00 -1°C° 0 mm 2 mps 748 mmHg 95%
    04:00 -1°C° 0 mm 2 mps 748 mmHg 96%
    05:00 -1°C° 0 mm 3 mps 748 mmHg 95%
    06:00 0°C° 0 mm 3 mps 749 mmHg 94%
    07:00 -1°C° 0 mm 4 mps 749 mmHg 93%
    08:00 0°C° 0 mm 5 mps 749 mmHg 87%
    09:00 +2°C° 0 mm 5 mps 749 mmHg 82%
    10:00 +3°C° 0 mm 6 mps 749 mmHg 77%
    11:00 +3°C° 0 mm 7 mps 749 mmHg 76%
    12:00 +3°C° 0 mm 7 mps 749 mmHg 75%
    13:00 +2°C° 0 mm 8 mps 749 mmHg 74%
    14:00 +3°C° 0.1 mm 7 mps 749 mmHg 73%
    15:00 +3°C° 0.1 mm 7 mps 749 mmHg 73%
    16:00 +3°C° 0.1 mm 7 mps 749 mmHg 72%
    17:00 +3°C° 0 mm 6 mps 749 mmHg 74%
    18:00 +2°C° 0 mm 5 mps 749 mmHg 77%
    19:00 +3°C° 0 mm 4 mps 749 mmHg 79%
    20:00 +3°C° 0.1 mm 4 mps 750 mmHg 81%
    21:00 +3°C° 0.1 mm 4 mps 750 mmHg 84%
    22:00 +1°C° 0.1 mm 4 mps 750 mmHg 86%
    23:00 +2°C° 0.1 mm 3 mps 750 mmHg 89%

    27 March, Wednesday

    Time Temperature Precipitation Wind Pressure Humidity
    00:00 +2°C° 0.1 mm 3 mps 751 mmHg 92%
    01:00 +1°C° 0.1 mm 3 mps 751 mmHg 95%
    02:00 +2°C° 0 mm 2 mps 751 mmHg 96%
    03:00 +1°C° 0 mm 2 mps 751 mmHg 96%
    04:00 +1°C° 0 mm 2 mps 751 mmHg 97%
    05:00 +2°C° 0 mm 2 mps 751 mmHg 95%
    06:00 +2°C° 0 mm 2 mps 751 mmHg 94%
    07:00 +2°C° 0 mm 3 mps 751 mmHg 92%
    08:00 +3°C° 0 mm 3 mps 752 mmHg 89%
    09:00 +4°C° 0 mm 3 mps 752 mmHg 86%
    10:00 +4°C° 0 mm 4 mps 752 mmHg 83%
    11:00 +5°C° 0 mm 4 mps 752 mmHg 78%
    12:00 +6°C° 0 mm 5 mps 752 mmHg 74%
    13:00 +7°C° 0 mm 5 mps 752 mmHg 69%
    14:00 +7°C° 0 mm 5 mps 752 mmHg 69%
    15:00 +7°C° 0 mm 5 mps 751 mmHg 69%
    16:00 +7°C° 0 mm 5 mps 751 mmHg 69%
    17:00 +6°C° 0 mm 4 mps 751 mmHg 74%
    18:00 +5°C° 0 mm 4 mps 751 mmHg 78%
    19:00 +5°C° 0 mm 3 mps 751 mmHg 83%
    20:00 +5°C° 0.1 mm 3 mps 751 mmHg 85%
    21:00 +5°C° 0.1 mm 3 mps 752 mmHg 87%
    22:00 +5°C° 0.1 mm 3 mps 752 mmHg 89%
    23:00 +5°C° 0 mm 3 mps 752 mmHg 90%

    28 March, Thursday

    Time Temperature Precipitation Wind Pressure Humidity
    00:00 +5°C° 0 mm 3 mps 752 mmHg 90%
    01:00 +5°C° 0 mm 3 mps 752 mmHg 91%
    02:00 +5°C° 0.2 mm 3 mps 752 mmHg 92%
    03:00 +5°C° 0.2 mm 3 mps 752 mmHg 92%
    04:00 +6°C° 0.2 mm 2 mps 752 mmHg 93%
    05:00 +6°C° 0.1 mm 2 mps 752 mmHg 93%
    06:00 +6°C° 0.1 mm 2 mps 752 mmHg 93%
    07:00 +6°C° 0.1 mm 2 mps 753 mmHg 94%
    08:00 +6°C° 0.1 mm 2 mps 753 mmHg 90%
    09:00 +7°C° 0.1 mm 2 mps 753 mmHg 87%
    10:00 +7°C° 0.1 mm 2 mps 754 mmHg 83%
    11:00 +8°C° 0 mm 2 mps 754 mmHg 78%
    12:00 +8°C° 0 mm 2 mps 754 mmHg 74%
    13:00 +9°C° 0 mm 2 mps 754 mmHg 69%
    14:00 +9°C° 0 mm 2 mps 754 mmHg 68%
    15:00 +9°C° 0 mm 2 mps 754 mmHg 67%
    16:00 +9°C° 0 mm 2 mps 754 mmHg 66%
    17:00 +8°C° 0 mm 2 mps 754 mmHg 72%
    18:00 +8°C° 0 mm 1 mps 754 mmHg 77%
    19:00 +7°C° 0 mm 1 mps 755 mmHg 82%
    20:00 +6°C° 0 mm 1 mps 755 mmHg 84%
    21:00 +6°C° 0 mm 1 mps 755 mmHg 86%
    22:00 +5°C° 0 mm 1 mps 755 mmHg 88%
    23:00 +5°C° 0 mm 1 mps 755 mmHg 88%

    29 March, Friday

    Time Temperature Precipitation Wind Pressure Humidity
    00:00 +5°C° 0 mm 1 mps 755 mmHg 88%
    01:00 +4°C° 0 mm 1 mps 755 mmHg 89%
    02:00 +4°C° 0 mm 1 mps 755 mmHg 89%
    03:00 +4°C° 0 mm 1 mps 755 mmHg 89%
    04:00 +4°C° 0 mm 1 mps 756 mmHg 89%
    05:00 +4°C° 0 mm 1 mps 756 mmHg 87%
    06:00 +5°C° 0 mm 1 mps 756 mmHg 85%
    07:00 +5°C° 0 mm 1 mps 756 mmHg 83%
    08:00 +7°C° 0 mm 1 mps 756 mmHg 75%
    09:00 +9°C° 0 mm 1 mps 756 mmHg 67%
    10:00 +11°C° 0 mm 1 mps 756 mmHg 59%
    11:00 +12°C° 0 mm 1 mps 755 mmHg 55%
    12:00 +13°C° 0 mm 1 mps 755 mmHg 52%
    13:00 +14°C° 0 mm 2 mps 755 mmHg 48%
    14:00 +14°C° 0 mm 2 mps 754 mmHg 48%
    15:00 +14°C° 0 mm 2 mps 754 mmHg 48%
    16:00 +14°C° 0 mm 2 mps 753 mmHg 48%
    17:00 +13°C° 0 mm 1 mps 753 mmHg 54%
    18:00 +11°C° 0 mm 1 mps 753 mmHg 60%
    19:00 +9°C° 0 mm 1 mps 753 mmHg 66%
    20:00 +9°C° 0 mm 1 mps 753 mmHg 69%
    21:00 +8°C° 0 mm 1 mps 753 mmHg 72%
    22:00 +7°C° 0 mm 1 mps 753 mmHg 74%
    23:00 +7°C° 0 mm 1 mps 753 mmHg 76%
    Show more